SCP
0 0 0 0 0 0 0 0 0 0 -0 -0 0 0 0 0 0 0 0 0 0 0 0 0 0 0 -0 -0 0 0 0 0 0 0 0 0 1 1 1 1 1 1 2 2
-0 0 0 0 -0 -0 0 -0 -0 -0 -0 -0 0 0 0 0 0 0 0 0 0 0 0 0 0 0 -0 0 0 0 0 0 0 0 0 0 1 1 1 0 1 1 2 2
0 0 0 0 -0 0 0 0 -0 -0 -0 0 0 0 0 0 0 0 0 0 0 0 0 0 0 -0 -0 -0 -0 0 -0 0 0 0 0 0 1 0 1 1 2 4 3 3
0 0 0 -0 0 0 0 0 0 0 0 0 0 0 0 0 0 0 0 0 0 -0 -0 -0 -0 0 0 -0 0 0 0 -0 0 0 0 0 1 1 1 3 4 5 4 3
0 0 -0 -0 0 0 0 0 0 0 0 0 0 0 -0 -0 0 0 -0 -0 -0 -0 -0 -0 -0 -0 -0 -0 -0 0 0 0 0 0 0 1 1 1 4 4 5 4 3 3
0 0 0 0 0 0 0 0 0 0 0 0 0 -0 -0 0 0 0 -0 -0 -0 -0 -0 -0 -0 0 -0 -0 -0 -0 0 0 0 0 0 1 1 4 5 5 4 3 4 4
-0 0 -0 0 0 0 0 0 0 0 0 0 0 -0 -0 -0 -0 -0 -0 -0 -0 -0 -0 -0 -0 -0 -0 -0 -0 -0 0 0 0 0 1 1 3 4 4 5 5 5 4 3
0 0 0 0 0 0 0 0 0 0 0 0 -0 -0 -0 -0 -0 -0 -0 -0 -0 -0 0 0 -0 0 -0 -0 0 0 0 0 1 2 2 2 2 4 4 5 5 4 3 2
0 0 -0 0 0 0 0 0 0 0 -0 0 -0 -0 -0 -0 -0 -0 -0 0 -0 -0 0 0 -0 0 -0 -0 0 0 1 2 2 2 2 3 3 4 4 4 3 2 2 1
0 0 0 0 -0 0 0 -0 -0 -0 -0 -0 -0 0 0 -0 -0 -0 0 0 0 0 0 -0 -0 -0 0 0 0 0 0 1 2 3 3 3 4 4 4 3 2 2 1 1
0 0 -0 0 0 -0 0 -0 -0 -0 -0 -0 -0 0 0 0 0 0 0 0 0 -0 -0 -0 -0 0 0 0 0 0 1 0 1 2 2 2 2 3 2 2 1 1 1 0
0 0 0 0 0 -0 -0 -0 -0 -0 0 0 -0 0 -0 -0 -0 -0 -0 0 0 -0 -0 0 0 0 0 0 0 0 0 0 0 0 0 1 1 0 0 0 0 0 0 0
0 0 0 0 0 0 -0 -0 -0 -0 -0 -0 0 -0 -0 -0 -0 -0 -0 -0 -0 -0 -0 0 0 0 0 0 0 0 0 0 0 0 1 1 1 0 0 0 0 0 0 0
-0 0 -0 0 0 0 0 0 0 0 -0 0 0 -0 -0 0 0 0 0 -0 -0 -0 0 0 0 0 0 0 0 0 0 0 0 0 0 0 0 0 0 0 0 0 0 0
0 0 0 0 0 0 0 0 -0 -0 0 -0 -0 0 0 0 0 0 0 0 -0 0 0 0 0 0 0 0 0 0 0 0 0 0 0 0 0 0 0 0 0 0 0 0
0 0 0 0 0 0 -0 -0 -0 -0 -0 -0 0 0 0 0 0 0 0 0 0 0 0 0 0 0 0 0 0 0 0 0 0 0 0 0 0 0 0 0 0 0 0 0
-0 -0 0 0 0 0 0 -0 -0 -0 -0 0 0 0 0 0 0 0 0 0 0 0 0 0 0 0 0 0 0 0 0 0 0 0 0 0 0 0 0 0 0 0 0 0
0 0 0 0 0 0 -0 -0 -0 -0 -0 0 0 0 0 0 0 0 0 0 0 0 0 0 0 0 0 0 0 0 0 0 0 0 0 0 0 0 0 0 0 0 0 0
-0 0 0 -0 0 0 0 0 -0 0 0 0 0 0 0 0 0 0 0 0 -0 0 0 0 0 0 0 0 0 0 0 0 0 0 0 0 0 0 0 0 0 0 0 0
0 0 0 0 0 0 0 0 0 0 0 0 0 0 0 0 0 0 -0 0 0 0 0 0 0 0 0 0 0 0 0 0 0 0 0 0 0 0 0 0 0 0 0 0
0 -0 0 -0 -0 -0 0 0 0 -0 0 0 0 0 0 0 0 0 0 0 0 0 0 0 0 0 0 0 0 0 0 0 0 0 0 0 0 0 0 0 0 0 0 0
0 -0 0 -0 0 -0 0 0 0 0 0 0 0 0 0 0 0 0 0 0 0 0 0 0 0 0 0 0 0 0 0 0 0 0 0 0 0 0 0 0 0 0 0 0
-0 -0 -0 0 0 0 0 0 -0 0 0 0 0 0 0 0 0 0 0 0 0 0 0 0 0 0 0 1 0 0 0 0 0 0 0 0 0 0 0 0 0 0 0 0
0 -0 -0 0 0 0 -0 -0 -0 -0 -0 0 0 0 0 0 0 0 0 0 0 0 0 0 0 0 0 0 0 0 0 0 0 0 0 0 0 0 0 0 0 0 0 0
-0 -0 -0 0 0 0 0 -0 0 -0 -0 0 0 0 0 0 0 0 0 0 0 0 0 0 0 0 0 0 0 0 0 0 0 0 0 0 0 0 0 0 0 0 0 0
0 -0 -0 -0 0 0 0 0 0 0 0 0 0 0 0 0 0 0 0 0 0 0 0 0 0 0 0 0 0 0 0 0 0 0 0 0 0 0 0 0 0 0 0 0
0 0 -0 -0 -0 0 0 0 0 -0 -0 -0 0 0 0 0 0 0 0 0 -0 0 0 0 0 0 0 0 0 0 0 0 0 0 0 0 0 0 0 0 0 0 0 0
Wind_Speed_500mb
43 42 41 47 45 45 43 49 48 52 56 48 46 41 43 47 46 40 42 43 45 51 59 62 58 62 64 65 59 62 65 64 66 64 69 70 65 68 64 64 61 61 61 60
50 42 37 41 46 51 53 56 58 57 60 49 57 55 35 43 39 45 46 48 52 57 60 56 61 66 64 68 63 67 75 71 68 68 65 70 67 68 67 67 63 60 63 67
34 33 23 28 45 51 51 50 47 47 47 37 28 31 30 41 50 54 52 55 57 64 59 61 65 66 67 72 70 75 75 75 76 72 70 70 65 68 74 74 71 75 75 68
18 23 25 31 15 21 27 28 26 31 34 33 34 32 41 52 61 53 54 57 67 67 63 66 67 68 74 86 79 86 102 98 79 69 71 67 69 74 76 78 84 84 77 68
12 19 32 42 21 18 23 35 32 28 26 27 39 54 58 63 43 50 61 63 64 63 66 70 72 70 88 89 89 103 103 83 71 63 68 67 75 78 80 83 82 78 70 67
10 11 10 2 2 15 21 30 23 20 26 35 51 39 37 58 59 65 67 67 68 69 72 71 74 76 80 86 93 106 72 60 69 67 69 77 80 82 85 87 83 71 67 65
27 15 17 12 16 13 13 13 50 52 54 57 37 45 69 66 70 69 72 72 71 71 74 72 74 75 87 76 93 84 93 88 71 73 84 83 84 88 87 83 78 74 71 69
10 9 11 20 33 18 37 57 59 63 57 58 66 71 70 73 74 79 74 74 72 74 76 72 76 80 83 86 104 104 38 71 75 83 85 88 88 86 88 88 83 79 77 70
9 10 36 38 36 47 45 50 60 62 70 63 75 80 75 79 84 87 87 83 75 74 79 77 76 68 71 78 84 84 70 60 73 83 84 87 94 91 85 78 87 83 75 76
19 4 26 45 58 46 49 61 67 73 77 76 77 83 89 86 86 90 90 74 67 77 78 74 61 52 64 61 56 43 52 34 59 71 77 79 80 77 76 74 74 76 86 65
28 35 47 35 44 64 68 72 72 79 79 81 82 88 81 78 79 81 81 78 72 75 74 66 53 46 49 46 32 16 31 23 40 64 77 81 74 64 61 68 85 88 65 59
12 49 45 53 72 77 78 75 78 78 90 78 60 74 79 75 67 66 67 62 51 50 53 48 40 41 34 32 15 7 18 30 47 59 74 78 80 74 69 70 66 60 57 53
23 59 74 71 68 61 74 77 86 56 62 77 66 61 61 67 67 63 60 60 59 51 43 41 37 34 27 19 11 2 5 30 51 68 72 82 74 78 78 64 62 58 56 52
54 54 64 58 78 84 73 80 64 63 57 54 58 58 63 65 65 58 53 51 42 38 35 34 32 28 20 13 11 9 14 41 60 54 66 63 59 68 75 62 65 58 47 42
63 72 64 71 78 73 73 62 59 60 58 56 51 52 51 58 62 57 42 36 30 27 26 25 27 24 18 14 25 26 23 40 39 48 51 58 59 58 55 54 57 55 54 52
71 62 66 67 67 72 67 59 56 56 54 53 52 48 47 45 38 25 14 17 19 19 19 22 24 18 9 15 27 36 47 51 43 53 62 57 57 54 56 55 52 52 46 54
61 70 77 71 69 70 62 56 52 51 50 51 50 45 37 28 21 14 8 7 13 15 12 19 14 12 25 27 60 71 72 53 57 54 56 54 55 53 49 49 49 46 44 51
53 63 71 68 67 67 66 59 60 54 48 45 40 35 28 20 20 13 12 4 1 7 13 17 7 14 4 48 57 51 60 58 54 53 49 51 52 52 49 49 48 46 58 52
54 64 76 76 70 67 66 65 55 45 42 40 34 31 28 19 17 16 14 8 5 8 12 11 10 29 44 43 48 50 52 53 56 52 54 57 50 51 48 47 48 58 55 47
60 58 66 76 70 69 64 56 55 51 47 40 35 34 33 32 25 16 18 17 20 24 11 9 34 49 36 49 51 47 50 51 53 52 53 51 50 48 49 51 57 56 50 42
57 56 61 66 71 70 68 61 58 60 52 47 46 41 38 31 27 20 14 15 14 12 13 23 44 47 44 50 55 52 51 48 50 48 50 50 52 52 61 63 58 53 49 47
54 52 58 66 76 73 70 66 62 59 60 58 51 45 40 37 28 25 24 22 15 19 22 28 39 44 54 49 53 50 47 48 48 46 51 53 55 62 66 62 55 49 50 53
46 44 53 58 59 72 73 76 71 69 66 64 59 53 45 39 35 30 28 24 16 23 33 26 36 38 51 50 45 45 45 49 48 47 58 64 65 66 67 58 50 50 55 54
40 38 42 52 51 72 77 77 71 66 60 55 53 48 48 44 38 31 27 18 16 23 39 29 27 28 42 52 58 57 57 61 61 58 62 65 62 61 56 49 49 52 53 50
37 38 39 52 57 59 65 69 71 70 67 61 55 50 47 43 41 35 28 22 21 30 43 34 33 34 46 52 53 52 54 56 57 57 64 62 59 54 52 53 54 55 52 46
35 38 38 41 48 49 53 64 63 65 63 60 53 49 48 45 41 36 31 28 31 35 36 41 42 42 45 47 48 52 57 54 54 58 60 60 59 56 56 58 60 55 51 50
35 34 37 40 42 48 48 48 56 53 58 52 49 47 46 43 43 41 37 34 39 39 40 40 43 45 45 47 45 51 58 59 58 59 58 59 60 62 65 65 63 61 60 59
Wind_Direction_500mb
266 272 273 276 269 264 237 235 253 274 271 276 281 290 297 294 293 285 273 276 282 289 292 286 283 292 296 298 286 280 284 275 267 263 257 252 251 245 237 227 221 215 206 198
267 267 262 268 267 263 256 256 259 262 268 276 277 274 279 299 292 290 285 284 290 297 299 287 284 289 295 299 289 281 284 273 268 262 256 248 242 235 227 220 213 204 197 192
259 261 273 258 253 249 251 252 254 258 263 273 296 289 295 300 294 290 289 288 290 295 292 290 290 292 293 294 288 284 280 275 268 259 254 245 236 224 215 209 201 189 190 185
275 289 259 259 262 266 275 275 276 259 262 269 286 296 296 299 293 288 285 296 299 294 291 294 292 290 288 297 289 284 284 277 259 248 244 238 224 213 205 197 188 184 183 181
250 243 268 288 295 268 296 282 299 290 283 318 308 297 288 282 306 305 301 296 294 295 292 296 292 290 292 294 288 289 279 268 248 242 234 222 210 202 194 183 181 179 177 175
223 245 264 90 66 328 307 275 53 2 306 301 306 295 292 312 312 301 297 294 295 296 295 295 293 295 291 289 289 291 281 262 252 231 224 208 197 189 181 178 174 170 171 172
228 252 280 336 11 338 266 325 320 314 306 304 298 294 302 299 298 292 290 292 295 296 294 296 295 299 296 295 295 306 278 268 220 203 192 189 182 177 169 166 162 163 160 170
218 252 272 7 335 317 316 311 313 309 306 300 294 295 295 296 297 294 292 292 293 295 295 297 298 301 298 306 307 319 74 147 158 167 171 176 168 163 163 158 160 154 160 154
285 281 324 322 311 307 304 293 291 290 297 295 291 291 294 298 298 295 292 291 290 293 294 295 296 300 301 307 328 347 36 115 140 155 155 158 161 156 155 153 160 160 151 154
311 276 310 313 308 304 306 301 302 302 299 295 293 292 298 300 298 296 294 290 288 292 288 290 295 299 300 316 339 358 18 99 133 141 147 150 151 154 152 155 152 152 158 153
289 292 330 297 301 304 301 301 299 305 304 302 300 295 297 292 290 287 284 284 286 283 283 284 290 296 308 315 339 2 7 108 132 141 142 145 141 140 149 154 159 157 155 160
291 304 291 286 297 299 296 308 312 311 304 299 296 290 292 289 285 285 286 285 281 278 277 282 284 293 300 309 328 344 352 138 150 151 148 148 141 132 138 146 146 151 155 157
289 291 289 293 296 307 313 310 314 306 303 301 297 291 288 287 286 282 278 275 276 276 271 265 276 284 285 295 254 138 309 163 153 142 142 141 139 140 140 144 151 153 156 164
316 319 318 318 313 315 314 316 307 309 302 301 299 297 294 291 295 286 278 276 275 275 272 264 267 271 282 261 222 168 181 163 142 136 136 133 137 140 145 142 147 147 152 154
330 328 314 315 318 324 324 320 318 316 314 311 310 306 306 300 300 295 284 271 270 271 266 264 268 276 270 241 204 190 219 168 147 141 136 136 138 138 141 143 152 152 149 149
316 320 325 327 329 335 336 334 325 321 321 321 321 313 309 308 316 309 271 250 243 248 254 263 274 276 260 231 214 252 183 161 156 147 142 143 143 143 145 146 145 148 149 153
332 333 334 337 334 339 342 339 334 329 329 329 327 324 324 331 336 343 323 246 233 241 264 270 275 248 245 281 147 152 162 167 156 150 149 150 146 145 146 147 149 150 156 157
340 337 338 340 342 344 347 349 350 347 344 341 336 341 347 3 3 12 16 48 304 279 288 306 302 215 207 138 142 148 153 154 153 150 147 145 146 143 147 150 150 151 155 157
345 342 345 346 346 352 1 356 357 356 358 357 355 1 8 11 26 32 46 33 334 338 345 102 204 203 152 148 142 146 145 150 151 145 142 139 139 142 142 146 149 154 156 158
352 346 348 350 355 360 2 9 17 17 16 13 16 22 22 28 25 31 47 30 12 20 43 32 129 151 148 146 138 143 147 145 141 139 142 141 140 141 142 144 149 151 154 159
348 349 349 352 360 6 6 13 19 20 23 30 29 29 26 24 30 26 26 44 38 53 73 95 135 157 138 144 144 146 145 139 135 138 140 140 138 139 144 144 144 156 156 156
356 356 355 356 1 8 12 22 27 22 29 34 34 35 39 39 40 43 34 29 47 111 100 103 140 143 139 142 137 142 143 138 136 139 134 133 140 147 151 155 155 157 155 157
352 355 359 2 4 11 16 22 26 25 27 31 28 33 35 33 30 38 42 42 66 103 108 108 145 134 134 124 133 135 131 128 130 134 142 143 146 154 159 161 157 154 156 158
349 355 359 7 10 10 13 21 25 28 29 33 33 31 33 36 41 43 43 41 57 108 117 114 132 144 150 144 140 142 143 142 145 153 157 157 157 156 156 156 154 157 158 160
357 353 360 6 11 12 5 17 22 24 27 30 33 36 37 36 40 41 49 61 79 100 114 140 131 139 139 144 149 150 151 152 153 152 152 150 150 153 154 154 156 157 155 158
11 360 3 5 8 7 8 9 20 18 22 27 31 35 40 40 44 52 56 75 82 99 110 114 127 134 139 143 147 148 149 149 151 148 151 151 153 155 155 158 156 155 155 154
20 20 12 11 12 11 13 10 16 17 18 24 27 33 42 43 49 55 62 72 82 92 102 112 123 128 132 138 143 147 148 150 153 153 156 157 158 157 156 157 155 152 148 144
Wind_Speed_850mb
43 42 41 47 45 45 43 49 48 52 56 48 46 41 43 47 46 40 42 43 45 51 59 62 58 62 64 65 59 62 65 64 66 64 69 70 65 68 64 64 61 61 61 60
50 42 37 41 46 51 53 56 58 57 60 49 57 55 35 43 39 45 46 48 52 57 60 56 61 66 64 68 63 67 75 71 68 68 65 70 67 68 67 67 63 60 63 67
34 33 23 28 45 51 51 50 47 47 47 37 28 31 30 41 50 54 52 55 57 64 59 61 65 66 67 72 70 75 75 75 76 72 70 70 65 68 74 74 71 75 75 68
18 23 25 31 15 21 27 28 26 31 34 33 34 32 41 52 61 53 54 57 67 67 63 66 67 68 74 86 79 86 102 98 79 69 71 67 69 74 76 78 84 84 77 68
12 19 32 42 21 18 23 35 32 28 26 27 39 54 58 63 43 50 61 63 64 63 66 70 72 70 88 89 89 103 103 83 71 63 68 67 75 78 80 83 82 78 70 67
10 11 10 2 2 15 21 30 23 20 26 35 51 39 37 58 59 65 67 67 68 69 72 71 74 76 80 86 93 106 72 60 69 67 69 77 80 82 85 87 83 71 67 65
27 15 17 12 16 13 13 13 50 52 54 57 37 45 69 66 70 69 72 72 71 71 74 72 74 75 87 76 93 84 93 88 71 73 84 83 84 88 87 83 78 74 71 69
10 9 11 20 33 18 37 57 59 63 57 58 66 71 70 73 74 79 74 74 72 74 76 72 76 80 83 86 104 104 38 71 75 83 85 88 88 86 88 88 83 79 77 70
9 10 36 38 36 47 45 50 60 62 70 63 75 80 75 79 84 87 87 83 75 74 79 77 76 68 71 78 84 84 70 60 73 83 84 87 94 91 85 78 87 83 75 76
19 4 26 45 58 46 49 61 67 73 77 76 77 83 89 86 86 90 90 74 67 77 78 74 61 52 64 61 56 43 52 34 59 71 77 79 80 77 76 74 74 76 86 65
28 35 47 35 44 64 68 72 72 79 79 81 82 88 81 78 79 81 81 78 72 75 74 66 53 46 49 46 32 16 31 23 40 64 77 81 74 64 61 68 85 88 65 59
12 49 45 53 72 77 78 75 78 78 90 78 60 74 79 75 67 66 67 62 51 50 53 48 40 41 34 32 15 7 18 30 47 59 74 78 80 74 69 70 66 60 57 53
23 59 74 71 68 61 74 77 86 56 62 77 66 61 61 67 67 63 60 60 59 51 43 41 37 34 27 19 11 2 5 30 51 68 72 82 74 78 78 64 62 58 56 52
54 54 64 58 78 84 73 80 64 63 57 54 58 58 63 65 65 58 53 51 42 38 35 34 32 28 20 13 11 9 14 41 60 54 66 63 59 68 75 62 65 58 47 42
63 72 64 71 78 73 73 62 59 60 58 56 51 52 51 58 62 57 42 36 30 27 26 25 27 24 18 14 25 26 23 40 39 48 51 58 59 58 55 54 57 55 54 52
71 62 66 67 67 72 67 59 56 56 54 53 52 48 47 45 38 25 14 17 19 19 19 22 24 18 9 15 27 36 47 51 43 53 62 57 57 54 56 55 52 52 46 54
61 70 77 71 69 70 62 56 52 51 50 51 50 45 37 28 21 14 8 7 13 15 12 19 14 12 25 27 60 71 72 53 57 54 56 54 55 53 49 49 49 46 44 51
53 63 71 68 67 67 66 59 60 54 48 45 40 35 28 20 20 13 12 4 1 7 13 17 7 14 4 48 57 51 60 58 54 53 49 51 52 52 49 49 48 46 58 52
54 64 76 76 70 67 66 65 55 45 42 40 34 31 28 19 17 16 14 8 5 8 12 11 10 29 44 43 48 50 52 53 56 52 54 57 50 51 48 47 48 58 55 47
60 58 66 76 70 69 64 56 55 51 47 40 35 34 33 32 25 16 18 17 20 24 11 9 34 49 36 49 51 47 50 51 53 52 53 51 50 48 49 51 57 56 50 42
57 56 61 66 71 70 68 61 58 60 52 47 46 41 38 31 27 20 14 15 14 12 13 23 44 47 44 50 55 52 51 48 50 48 50 50 52 52 61 63 58 53 49 47
54 52 58 66 76 73 70 66 62 59 60 58 51 45 40 37 28 25 24 22 15 19 22 28 39 44 54 49 53 50 47 48 48 46 51 53 55 62 66 62 55 49 50 53
46 44 53 58 59 72 73 76 71 69 66 64 59 53 45 39 35 30 28 24 16 23 33 26 36 38 51 50 45 45 45 49 48 47 58 64 65 66 67 58 50 50 55 54
40 38 42 52 51 72 77 77 71 66 60 55 53 48 48 44 38 31 27 18 16 23 39 29 27 28 42 52 58 57 57 61 61 58 62 65 62 61 56 49 49 52 53 50
37 38 39 52 57 59 65 69 71 70 67 61 55 50 47 43 41 35 28 22 21 30 43 34 33 34 46 52 53 52 54 56 57 57 64 62 59 54 52 53 54 55 52 46
35 38 38 41 48 49 53 64 63 65 63 60 53 49 48 45 41 36 31 28 31 35 36 41 42 42 45 47 48 52 57 54 54 58 60 60 59 56 56 58 60 55 51 50
35 34 37 40 42 48 48 48 56 53 58 52 49 47 46 43 43 41 37 34 39 39 40 40 43 45 45 47 45 51 58 59 58 59 58 59 60 62 65 65 63 61 60 59
Wind_Direction_850mb
266 272 273 276 269 264 237 235 253 274 271 276 281 290 297 294 293 285 273 276 282 289 292 286 283 292 296 298 286 280 284 275 267 263 257 252 251 245 237 227 221 215 206 198
267 267 262 268 267 263 256 256 259 262 268 276 277 274 279 299 292 290 285 284 290 297 299 287 284 289 295 299 289 281 284 273 268 262 256 248 242 235 227 220 213 204 197 192
259 261 273 258 253 249 251 252 254 258 263 273 296 289 295 300 294 290 289 288 290 295 292 290 290 292 293 294 288 284 280 275 268 259 254 245 236 224 215 209 201 189 190 185
275 289 259 259 262 266 275 275 276 259 262 269 286 296 296 299 293 288 285 296 299 294 291 294 292 290 288 297 289 284 284 277 259 248 244 238 224 213 205 197 188 184 183 181
250 243 268 288 295 268 296 282 299 290 283 318 308 297 288 282 306 305 301 296 294 295 292 296 292 290 292 294 288 289 279 268 248 242 234 222 210 202 194 183 181 179 177 175
223 245 264 90 66 328 307 275 53 2 306 301 306 295 292 312 312 301 297 294 295 296 295 295 293 295 291 289 289 291 281 262 252 231 224 208 197 189 181 178 174 170 171 172
228 252 280 336 11 338 266 325 320 314 306 304 298 294 302 299 298 292 290 292 295 296 294 296 295 299 296 295 295 306 278 268 220 203 192 189 182 177 169 166 162 163 160 170
218 252 272 7 335 317 316 311 313 309 306 300 294 295 295 296 297 294 292 292 293 295 295 297 298 301 298 306 307 319 74 147 158 167 171 176 168 163 163 158 160 154 160 154
285 281 324 322 311 307 304 293 291 290 297 295 291 291 294 298 298 295 292 291 290 293 294 295 296 300 301 307 328 347 36 115 140 155 155 158 161 156 155 153 160 160 151 154
311 276 310 313 308 304 306 301 302 302 299 295 293 292 298 300 298 296 294 290 288 292 288 290 295 299 300 316 339 358 18 99 133 141 147 150 151 154 152 155 152 152 158 153
289 292 330 297 301 304 301 301 299 305 304 302 300 295 297 292 290 287 284 284 286 283 283 284 290 296 308 315 339 2 7 108 132 141 142 145 141 140 149 154 159 157 155 160
291 304 291 286 297 299 296 308 312 311 304 299 296 290 292 289 285 285 286 285 281 278 277 282 284 293 300 309 328 344 352 138 150 151 148 148 141 132 138 146 146 151 155 157
289 291 289 293 296 307 313 310 314 306 303 301 297 291 288 287 286 282 278 275 276 276 271 265 276 284 285 295 254 138 309 163 153 142 142 141 139 140 140 144 151 153 156 164
316 319 318 318 313 315 314 316 307 309 302 301 299 297 294 291 295 286 278 276 275 275 272 264 267 271 282 261 222 168 181 163 142 136 136 133 137 140 145 142 147 147 152 154
330 328 314 315 318 324 324 320 318 316 314 311 310 306 306 300 300 295 284 271 270 271 266 264 268 276 270 241 204 190 219 168 147 141 136 136 138 138 141 143 152 152 149 149
316 320 325 327 329 335 336 334 325 321 321 321 321 313 309 308 316 309 271 250 243 248 254 263 274 276 260 231 214 252 183 161 156 147 142 143 143 143 145 146 145 148 149 153
332 333 334 337 334 339 342 339 334 329 329 329 327 324 324 331 336 343 323 246 233 241 264 270 275 248 245 281 147 152 162 167 156 150 149 150 146 145 146 147 149 150 156 157
340 337 338 340 342 344 347 349 350 347 344 341 336 341 347 3 3 12 16 48 304 279 288 306 302 215 207 138 142 148 153 154 153 150 147 145 146 143 147 150 150 151 155 157
345 342 345 346 346 352 1 356 357 356 358 357 355 1 8 11 26 32 46 33 334 338 345 102 204 203 152 148 142 146 145 150 151 145 142 139 139 142 142 146 149 154 156 158
352 346 348 350 355 360 2 9 17 17 16 13 16 22 22 28 25 31 47 30 12 20 43 32 129 151 148 146 138 143 147 145 141 139 142 141 140 141 142 144 149 151 154 159
348 349 349 352 360 6 6 13 19 20 23 30 29 29 26 24 30 26 26 44 38 53 73 95 135 157 138 144 144 146 145 139 135 138 140 140 138 139 144 144 144 156 156 156
356 356 355 356 1 8 12 22 27 22 29 34 34 35 39 39 40 43 34 29 47 111 100 103 140 143 139 142 137 142 143 138 136 139 134 133 140 147 151 155 155 157 155 157
352 355 359 2 4 11 16 22 26 25 27 31 28 33 35 33 30 38 42 42 66 103 108 108 145 134 134 124 133 135 131 128 130 134 142 143 146 154 159 161 157 154 156 158
349 355 359 7 10 10 13 21 25 28 29 33 33 31 33 36 41 43 43 41 57 108 117 114 132 144 150 144 140 142 143 142 145 153 157 157 157 156 156 156 154 157 158 160
357 353 360 6 11 12 5 17 22 24 27 30 33 36 37 36 40 41 49 61 79 100 114 140 131 139 139 144 149 150 151 152 153 152 152 150 150 153 154 154 156 157 155 158
11 360 3 5 8 7 8 9 20 18 22 27 31 35 40 40 44 52 56 75 82 99 110 114 127 134 139 143 147 148 149 149 151 148 151 151 153 155 155 158 156 155 155 154
20 20 12 11 12 11 13 10 16 17 18 24 27 33 42 43 49 55 62 72 82 92 102 112 123 128 132 138 143 147 148 150 153 153 156 157 158 157 156 157 155 152 148 144